StationID,Date,MaxTemp,MinTemp,Precipitation,Snowfall,SnowDepth
"USC00500804","1941-03-01",44.06,28.94,0.00,0.00,0.00
"USC00500804","1941-03-02",46.04,35.06,0.00,0.00,
"USC00500804","1941-03-03",44.06,32.00,0.00,0.00,
"USC00500804","1941-03-04",46.04,37.94,0.00,0.00,
"USC00500804","1941-03-05",44.96,37.04,89.00,0.00,
"USC00500804","1941-03-06",44.96,32.00,79.00,0.00,
"USC00500804","1941-03-07",44.06,33.98,170.00,0.00,
"USC00500804","1941-03-08",44.96,33.98,142.00,0.00,
"USC00500804","1941-03-09",44.96,37.94,259.00,0.00,
"USC00500804","1941-03-10",53.96,37.94,0.00,0.00,
"USC00500804","1941-03-11",57.02,35.06,30.00,0.00,
"USC00500804","1941-03-12",42.08,33.08,127.00,0.00,
"USC00500804","1941-03-13",44.96,37.04,249.00,0.00,
"USC00500804","1941-03-14",44.96,42.08,224.00,0.00,
"USC00500804","1941-03-15",50.00,37.94,5.00,0.00,
"USC00500804","1941-03-16",44.96,37.04,124.00,0.00,
"USC00500804","1941-03-17",50.00,37.94,23.00,0.00,
"USC00500804","1941-03-18",50.00,35.96,0.00,0.00,
"USC00500804","1941-03-19",51.08,39.02,0.00,0.00,
"USC00500804","1941-03-20",46.94,39.02,48.00,0.00,
"USC00500804","1941-03-21",51.98,35.06,61.00,0.00,
"USC00500804","1941-03-22",50.00,35.96,8.00,0.00,
"USC00500804","1941-03-23",50.00,37.04,48.00,0.00,
"USC00500804","1941-03-24",46.94,37.04,30.00,0.00,
"USC00500804","1941-03-25",46.04,39.02,5.00,0.00,
"USC00500804","1941-03-26",55.94,35.06,0.00,0.00,
"USC00500804","1941-03-27",46.94,42.08,36.00,0.00,
"USC00500804","1941-03-28",48.92,35.96,0.00,0.00,
"USC00500804","1941-03-29",50.00,32.00,0.00,0.00,
"USC00500804","1941-03-30",46.94,32.00,5.00,0.00,
"USC00500804","1941-03-31",50.00,33.98,25.00,0.00,
"USC00500804","1941-04-01",53.06,35.06,13.00,,
"USC00500804","1941-04-02",57.92,42.98,0.00,,
"USC00500804","1941-04-03",57.02,37.94,20.00,,
"USC00500804","1941-04-04",57.02,39.02,0.00,,
"USC00500804","1941-04-05",55.94,42.08,5.00,,
"USC00500804","1941-04-06",55.04,33.98,46.00,,
"USC00500804","1941-04-07",51.98,41.00,107.00,,
"USC00500804","1941-04-08",53.96,39.92,97.00,,
"USC00500804","1941-04-09",51.08,39.02,173.00,,
"USC00500804","1941-04-10",51.98,37.94,0.00,,
"USC00500804","1941-04-11",50.00,37.94,104.00,,
"USC00500804","1941-04-12",50.00,37.94,41.00,,
"USC00500804","1941-04-13",53.06,37.94,249.00,,
"USC00500804","1941-04-14",48.92,35.06,15.00,,
"USC00500804","1941-04-15",48.02,33.08,56.00,,
"USC00500804","1941-04-16",48.02,39.92,20.00,,
"USC00500804","1941-04-17",48.92,39.02,8.00,,
"USC00500804","1941-04-18",51.98,37.04,0.00,,
"USC00500804","1941-04-19",53.96,37.94,0.00,,
"USC00500804","1941-04-20",51.08,41.00,41.00,,
"USC00500804","1941-04-21",50.00,39.92,0.00,,
"USC00500804","1941-04-22",50.00,41.00,13.00,,
"USC00500804","1941-04-23",50.00,35.96,3.00,,
"USC00500804","1941-04-24",48.02,39.02,0.00,,
"USC00500804","1941-04-25",57.02,42.08,0.00,,
"USC00500804","1941-04-26",48.92,39.92,56.00,,
"USC00500804","1941-04-27",48.92,37.94,36.00,,
"USC00500804","1941-04-28",51.08,41.00,114.00,,
"USC00500804","1941-04-29",51.08,37.94,25.00,,
"USC00500804","1941-04-30",51.98,37.94,0.00,,
"USC00500804","1941-05-01",51.98,39.92,13.00,0.00,
"USC00500804","1941-05-02",57.92,42.08,15.00,0.00,
"USC00500804","1941-05-03",57.92,39.92,38.00,0.00,
"USC00500804","1941-05-04",60.08,39.02,0.00,0.00,
"USC00500804","1941-05-05",60.08,39.92,0.00,0.00,
"USC00500804","1941-05-06",57.92,42.98,0.00,0.00,
"USC00500804","1941-05-07",53.96,42.08,0.00,0.00,
"USC00500804","1941-05-08",51.98,39.92,8.00,0.00,
"USC00500804","1941-05-09",55.04,39.92,0.00,0.00,
"USC00500804","1941-05-10",57.02,39.92,0.00,0.00,
"USC00500804","1941-05-11",57.02,39.92,0.00,0.00,
"USC00500804","1941-05-12",55.94,44.06,0.00,0.00,
"USC00500804","1941-05-13",55.94,42.98,0.00,0.00,
"USC00500804","1941-05-14",53.96,42.08,132.00,0.00,
"USC00500804","1941-05-15",53.96,37.94,25.00,0.00,
"USC00500804","1941-05-16",51.98,41.00,46.00,0.00,
"USC00500804","1941-05-17",53.06,35.96,0.00,0.00,
"USC00500804","1941-05-18",53.06,39.02,94.00,0.00,
"USC00500804","1941-05-19",51.08,39.02,91.00,0.00,
"USC00500804","1941-05-20",51.08,39.02,99.00,0.00,
"USC00500804","1941-05-21",53.06,37.04,94.00,0.00,
"USC00500804","1941-05-22",53.06,42.08,18.00,0.00,
"USC00500804","1941-05-23",53.96,39.92,33.00,0.00,
"USC00500804","1941-05-24",53.96,42.98,0.00,0.00,
"USC00500804","1941-05-25",53.96,42.98,0.00,0.00,
"USC00500804","1941-05-26",53.96,42.98,64.00,0.00,
"USC00500804","1941-05-27",55.04,41.00,10.00,0.00,
"USC00500804","1941-05-28",62.96,42.98,0.00,0.00,
"USC00500804","1941-05-29",64.04,44.06,0.00,0.00,
"USC00500804","1941-05-30",64.04,42.98,0.00,0.00,
"USC00500804","1941-05-31",57.92,44.96,0.00,0.00,
"USC00500804","1941-06-01",64.04,46.04,0.00,0.00,
"USC00500804","1941-06-02",57.02,46.04,0.00,0.00,
"USC00500804","1941-06-03",60.08,46.04,0.00,0.00,
"USC00500804","1941-06-04",62.96,48.02,0.00,0.00,
"USC00500804","1941-06-05",64.94,50.00,5.00,0.00,
"USC00500804","1941-06-06",64.94,42.98,8.00,0.00,
"USC00500804","1941-06-07",62.06,42.98,0.00,0.00,
"USC00500804","1941-06-08",60.08,46.94,0.00,0.00,
"USC00500804","1941-06-09",53.96,44.06,127.00,0.00,
"USC00500804","1941-06-10",59.00,46.04,61.00,0.00,
"USC00500804","1941-06-11",55.94,46.94,28.00,0.00,
"USC00500804","1941-06-12",55.94,44.06,25.00,0.00,
"USC00500804","1941-06-13",60.08,44.06,0.00,0.00,
"USC00500804","1941-06-14",64.94,46.04,33.00,0.00,
"USC00500804","1941-06-15",62.06,46.94,0.00,0.00,
"USC00500804","1941-06-16",60.08,48.92,0.00,0.00,
"USC00500804","1941-06-17",60.08,50.00,15.00,0.00,
"USC00500804","1941-06-18",62.06,48.02,5.00,0.00,
"USC00500804","1941-06-19",64.04,48.02,0.00,0.00,
"USC00500804","1941-06-20",64.04,48.92,0.00,0.00,
"USC00500804","1941-06-21",64.94,48.92,0.00,0.00,
"USC00500804","1941-06-22",69.08,50.00,0.00,0.00,
"USC00500804","1941-06-23",53.96,48.92,15.00,0.00,
"USC00500804","1941-06-24",57.02,46.94,5.00,0.00,
"USC00500804","1941-06-25",60.08,46.94,3.00,0.00,
"USC00500804","1941-06-26",60.08,48.02,66.00,0.00,
"USC00500804","1941-06-27",55.04,50.00,213.00,0.00,
"USC00500804","1941-06-28",53.96,50.00,191.00,0.00,
"USC00500804","1941-06-29",57.92,48.02,25.00,0.00,
"USC00500804","1941-06-30",60.08,48.92,13.00,0.00,
"USC00500804","1941-07-01",66.92,51.08,43.00,0.00,
"USC00500804","1941-07-02",64.04,50.00,0.00,0.00,
"USC00500804","1941-07-03",64.94,50.00,3.00,0.00,
"USC00500804","1941-07-04",69.98,51.98,46.00,0.00,
"USC00500804","1941-07-05",60.08,51.98,0.00,0.00,
"USC00500804","1941-07-06",62.06,48.92,0.00,0.00,
"USC00500804","1941-07-07",62.06,48.02,0.00,0.00,
"USC00500804","1941-07-08",60.08,51.08,0.00,0.00,
"USC00500804","1941-07-09",60.08,44.96,0.00,0.00,
"USC00500804","1941-07-10",60.08,48.02,33.00,0.00,
"USC00500804","1941-07-11",57.92,48.02,28.00,0.00,
"USC00500804","1941-07-12",55.94,44.96,528.00,0.00,
"USC00500804","1941-07-13",60.08,53.06,175.00,0.00,
"USC00500804","1941-07-14",57.02,51.98,102.00,0.00,
"USC00500804","1941-07-15",68.00,50.00,0.00,0.00,
"USC00500804","1941-07-16",60.98,51.98,0.00,0.00,
"USC00500804","1941-07-17",59.00,48.92,10.00,0.00,
"USC00500804","1941-07-18",60.08,50.00,0.00,0.00,
"USC00500804","1941-07-19",60.08,50.00,0.00,0.00,
"USC00500804","1941-07-20",62.06,50.00,102.00,0.00,
"USC00500804","1941-07-21",62.06,51.08,25.00,0.00,
"USC00500804","1941-07-22",62.06,51.98,0.00,0.00,
"USC00500804","1941-07-23",62.06,51.98,0.00,0.00,
"USC00500804","1941-07-24",62.06,51.98,48.00,0.00,
"USC00500804","1941-07-25",60.08,51.98,13.00,0.00,
"USC00500804","1941-07-26",60.98,50.00,0.00,0.00,
"USC00500804","1941-07-27",55.94,48.92,30.00,0.00,
"USC00500804","1941-07-28",55.94,50.00,94.00,0.00,
"USC00500804","1941-07-29",60.98,48.02,0.00,0.00,
"USC00500804","1941-07-30",60.98,46.94,0.00,0.00,
"USC00500804","1941-07-31",60.08,51.98,91.00,0.00,
"USC00500804","1941-08-01",64.94,51.08,0.00,0.00,
"USC00500804","1941-08-02",69.98,46.94,0.00,0.00,
"USC00500804","1941-08-03",64.94,50.00,0.00,0.00,
"USC00500804","1941-08-04",60.98,50.00,0.00,0.00,
"USC00500804","1941-08-05",57.92,53.06,0.00,0.00,
"USC00500804","1941-08-06",60.98,53.96,0.00,0.00,
"USC00500804","1941-08-07",64.94,51.08,0.00,0.00,
"USC00500804","1941-08-08",66.02,46.94,0.00,0.00,
"USC00500804","1941-08-09",60.08,51.98,0.00,0.00,
"USC00500804","1941-08-10",55.04,51.98,0.00,0.00,
"USC00500804","1941-08-11",64.94,51.98,0.00,0.00,
"USC00500804","1941-08-12",64.04,51.98,13.00,0.00,
"USC00500804","1941-08-13",66.92,51.08,0.00,0.00,
"USC00500804","1941-08-14",64.94,51.08,0.00,0.00,
"USC00500804","1941-08-15",60.98,51.98,0.00,0.00,
"USC00500804","1941-08-16",62.06,50.00,3.00,0.00,
"USC00500804","1941-08-17",62.96,51.08,53.00,0.00,
"USC00500804","1941-08-18",66.02,51.08,0.00,0.00,
"USC00500804","1941-08-19",64.04,51.08,5.00,0.00,
"USC00500804","1941-08-20",64.04,53.96,13.00,0.00,
"USC00500804","1941-08-21",66.92,53.96,0.00,0.00,
"USC00500804","1941-08-22",69.08,55.94,15.00,0.00,
"USC00500804","1941-08-23",66.92,51.98,0.00,0.00,
"USC00500804","1941-08-24",68.00,51.08,0.00,0.00,
"USC00500804","1941-08-25",75.02,50.00,0.00,0.00,
"USC00500804","1941-08-26",73.94,53.06,0.00,0.00,
"USC00500804","1941-08-27",64.94,53.06,0.00,0.00,
"USC00500804","1941-08-28",60.98,53.06,0.00,0.00,
"USC00500804","1941-08-29",60.98,50.00,0.00,0.00,
"USC00500804","1941-08-30",66.02,46.04,0.00,0.00,
"USC00500804","1941-08-31",62.96,44.06,0.00,0.00,
"USC00500804","1941-09-01",62.06,44.96,0.00,0.00,
"USC00500804","1941-09-02",64.94,50.00,0.00,0.00,
"USC00500804","1941-09-03",64.04,50.00,0.00,0.00,
"USC00500804","1941-09-04",62.96,50.00,0.00,0.00,
"USC00500804","1941-09-05",62.96,48.92,0.00,0.00,
"USC00500804","1941-09-06",64.04,48.92,0.00,0.00,
"USC00500804","1941-09-07",57.02,48.92,46.00,0.00,
"USC00500804","1941-09-08",55.94,48.02,38.00,0.00,
"USC00500804","1941-09-09",69.98,48.02,0.00,0.00,
"USC00500804","1941-09-10",62.96,48.02,0.00,0.00,
"USC00500804","1941-09-11",71.06,50.00,8.00,0.00,
"USC00500804","1941-09-12",60.08,48.92,109.00,0.00,
"USC00500804","1941-09-13",62.06,44.06,0.00,0.00,
"USC00500804","1941-09-14",60.08,42.08,0.00,0.00,
"USC00500804","1941-09-15",53.96,44.96,94.00,0.00,
"USC00500804","1941-09-16",60.98,44.96,0.00,0.00,
"USC00500804","1941-09-17",64.04,44.96,0.00,0.00,
"USC00500804","1941-09-18",64.94,44.06,0.00,0.00,
"USC00500804","1941-09-19",60.98,44.96,25.00,0.00,
"USC00500804","1941-09-20",53.06,46.04,406.00,0.00,
"USC00500804","1941-09-21",57.02,48.02,401.00,0.00,
"USC00500804","1941-09-22",55.94,48.92,0.00,0.00,
"USC00500804","1941-09-23",62.06,48.92,3.00,0.00,
"USC00500804","1941-09-24",55.94,50.00,160.00,0.00,
"USC00500804","1941-09-25",55.94,48.02,0.00,0.00,
"USC00500804","1941-09-26",57.02,46.04,180.00,0.00,
"USC00500804","1941-09-27",53.06,44.96,66.00,0.00,
"USC00500804","1941-09-28",57.02,44.06,0.00,0.00,
"USC00500804","1941-09-29",53.96,44.96,97.00,0.00,
"USC00500804","1941-09-30",60.98,46.94,36.00,0.00,
"USC00500804","1941-10-01",59.00,46.94,36.00,,
"USC00500804","1941-10-02",53.96,48.02,3.00,,
"USC00500804","1941-10-03",55.94,46.04,267.00,,
"USC00500804","1941-10-04",55.94,41.00,48.00,,
"USC00500804","1941-10-05",53.06,46.04,0.00,,
"USC00500804","1941-10-06",53.96,42.08,69.00,,
"USC00500804","1941-10-07",53.06,42.08,25.00,,
"USC00500804","1941-10-08",53.96,37.04,3.00,,
"USC00500804","1941-10-09",50.00,41.00,0.00,,
"USC00500804","1941-10-10",48.02,39.92,66.00,,
"USC00500804","1941-10-11",48.92,44.06,102.00,,
"USC00500804","1941-10-12",48.02,41.00,109.00,,
"USC00500804","1941-10-13",51.98,42.98,254.00,,
"USC00500804","1941-10-14",48.92,41.00,28.00,,
"USC00500804","1941-10-15",50.00,42.98,30.00,,
"USC00500804","1941-10-16",51.08,44.96,41.00,,
"USC00500804","1941-10-17",51.08,44.96,198.00,,
"USC00500804","1941-10-18",50.00,44.96,160.00,,
"USC00500804","1941-10-19",46.94,41.00,79.00,,
"USC00500804","1941-10-20",50.00,39.92,310.00,,
"USC00500804","1941-10-21",51.08,42.98,30.00,,
"USC00500804","1941-10-22",51.08,42.98,643.00,,
"USC00500804","1941-10-23",51.98,44.06,183.00,,
"USC00500804","1941-10-24",53.06,46.04,264.00,,
"USC00500804","1941-10-25",51.98,42.98,53.00,,
"USC00500804","1941-10-26",48.02,39.92,0.00,,
"USC00500804","1941-10-27",50.00,37.94,0.00,,
"USC00500804","1941-10-28",50.00,35.96,0.00,,
"USC00500804","1941-10-29",48.92,44.96,498.00,,
"USC00500804","1941-10-30",50.00,44.96,64.00,,
"USC00500804","1941-10-31",48.92,42.08,64.00,,
"USC00500804","1941-11-01",46.04,39.02,142.00,0.00,
"USC00500804","1941-11-02",46.04,33.98,0.00,0.00,
"USC00500804","1941-11-03",42.98,35.06,0.00,0.00,
"USC00500804","1941-11-04",46.04,33.08,15.00,0.00,
"USC00500804","1941-11-05",46.04,35.06,84.00,0.00,
"USC00500804","1941-11-06",48.02,41.00,102.00,0.00,
"USC00500804","1941-11-07",48.02,44.96,246.00,0.00,
"USC00500804","1941-11-08",46.04,39.92,33.00,0.00,
"USC00500804","1941-11-09",46.94,39.02,66.00,0.00,
"USC00500804","1941-11-10",51.98,44.06,361.00,0.00,
"USC00500804","1941-11-11",46.04,35.06,137.00,0.00,
"USC00500804","1941-11-12",44.06,37.94,91.00,0.00,
"USC00500804","1941-11-13",42.98,37.94,10.00,0.00,
"USC00500804","1941-11-14",44.06,35.06,28.00,0.00,
"USC00500804","1941-11-15",44.06,35.96,74.00,0.00,
"USC00500804","1941-11-16",42.98,33.08,0.00,0.00,
"USC00500804","1941-11-17",44.96,35.06,64.00,0.00,
"USC00500804","1941-11-18",44.96,39.92,28.00,0.00,
"USC00500804","1941-11-19",48.02,41.00,439.00,0.00,
"USC00500804","1941-11-20",48.92,39.92,84.00,0.00,
"USC00500804","1941-11-21",44.96,33.98,0.00,0.00,
"USC00500804","1941-11-22",42.08,35.96,8.00,0.00,
"USC00500804","1941-11-23",44.96,37.94,290.00,0.00,
"USC00500804","1941-11-24",42.08,32.00,46.00,0.00,
"USC00500804","1941-11-25",39.02,30.02,51.00,25.00,25.00
"USC00500804","1941-11-26",35.06,28.04,20.00,20.00,51.00
"USC00500804","1941-11-27",33.98,28.04,23.00,13.00,51.00
"USC00500804","1941-11-28",37.04,24.08,127.00,25.00,76.00
"USC00500804","1941-11-29",39.92,32.00,48.00,20.00,51.00
"USC00500804","1941-11-30",39.02,30.02,66.00,13.00,25.00
"USC00500804","1941-12-01",39.92,33.08,114.00,0.00,0.00
"USC00500804","1941-12-02",37.94,26.96,51.00,36.00,0.00
"USC00500804","1941-12-03",30.92,21.02,3.00,3.00,51.00
"USC00500804","1941-12-04",35.06,28.94,5.00,5.00,51.00
"USC00500804","1941-12-05",44.06,32.00,259.00,0.00,0.00
"USC00500804","1941-12-06",41.00,32.00,99.00,0.00,0.00
"USC00500804","1941-12-07",37.94,30.02,130.00,25.00,0.00
"USC00500804","1941-12-08",37.94,30.02,84.00,13.00,51.00
"USC00500804","1941-12-09",39.02,32.00,99.00,0.00,51.00
"USC00500804","1941-12-10",39.92,32.00,287.00,0.00,0.00
"USC00500804","1941-12-11",42.98,37.04,91.00,0.00,0.00
"USC00500804","1941-12-12",42.98,37.04,64.00,0.00,0.00
"USC00500804","1941-12-13",48.02,37.04,0.00,0.00,0.00
"USC00500804","1941-12-14",46.04,35.06,127.00,0.00,0.00
"USC00500804","1941-12-15",42.98,35.06,0.00,0.00,0.00
"USC00500804","1941-12-16",39.92,30.92,66.00,0.00,0.00
"USC00500804","1941-12-17",39.92,30.92,178.00,0.00,0.00
"USC00500804","1941-12-18",44.06,35.06,8.00,0.00,0.00
"USC00500804","1941-12-19",44.06,37.04,8.00,0.00,0.00
"USC00500804","1941-12-20",48.02,33.08,76.00,0.00,0.00
"USC00500804","1941-12-21",39.92,30.92,193.00,0.00,0.00
"USC00500804","1941-12-22",41.00,33.98,38.00,0.00,0.00
"USC00500804","1941-12-23",42.08,32.00,76.00,0.00,0.00
"USC00500804","1941-12-24",41.00,28.94,0.00,0.00,0.00
"USC00500804","1941-12-25",41.00,28.04,0.00,0.00,0.00
"USC00500804","1941-12-26",42.08,33.98,28.00,0.00,0.00
"USC00500804","1941-12-27",44.96,37.04,71.00,0.00,0.00
"USC00500804","1941-12-28",42.98,33.08,5.00,0.00,0.00
"USC00500804","1941-12-29",39.02,30.92,0.00,0.00,0.00
"USC00500804","1941-12-30",39.92,32.00,0.00,0.00,0.00
"USC00500804","1941-12-31",41.00,35.06,3.00,0.00,0.00
"USC00500804","1942-01-01",42.98,37.04,10.00,0.00,
"USC00500804","1942-01-02",42.98,37.94,5.00,0.00,
"USC00500804","1942-01-03",41.00,33.98,0.00,0.00,
"USC00500804","1942-01-04",42.08,37.94,38.00,0.00,
"USC00500804","1942-01-05",42.08,33.98,28.00,0.00,
"USC00500804","1942-01-06",39.92,32.00,0.00,0.00,
"USC00500804","1942-01-07",39.92,32.00,0.00,0.00,
"USC00500804","1942-01-08",44.06,32.00,0.00,0.00,
"USC00500804","1942-01-09",48.02,39.92,94.00,0.00,
"USC00500804","1942-01-10",48.92,41.00,325.00,0.00,
"USC00500804","1942-01-11",51.98,42.08,183.00,0.00,
"USC00500804","1942-01-12",46.94,41.00,102.00,0.00,
"USC00500804","1942-01-13",48.02,42.08,140.00,0.00,
"USC00500804","1942-01-14",44.96,37.94,56.00,0.00,
"USC00500804","1942-01-15",46.94,39.02,135.00,0.00,
"USC00500804","1942-01-16",42.98,35.06,221.00,0.00,
"USC00500804","1942-01-17",48.02,39.02,198.00,0.00,
"USC00500804","1942-01-18",46.04,37.04,86.00,0.00,
"USC00500804","1942-01-19",48.92,37.04,208.00,0.00,
"USC00500804","1942-01-20",48.92,44.06,632.00,0.00,
"USC00500804","1942-01-21",48.92,37.04,20.00,0.00,
"USC00500804","1942-01-22",51.08,37.04,79.00,0.00,
"USC00500804","1942-01-23",53.06,42.08,79.00,0.00,
"USC00500804","1942-01-24",48.92,41.00,53.00,0.00,
"USC00500804","1942-01-25",44.06,37.94,0.00,0.00,
"USC00500804","1942-01-26",44.06,35.06,0.00,0.00,
"USC00500804","1942-01-27",44.06,37.04,86.00,0.00,
"USC00500804","1942-01-28",46.94,37.04,36.00,0.00,
"USC00500804","1942-01-29",46.04,37.04,0.00,0.00,
"USC00500804","1942-01-30",46.04,35.96,0.00,0.00,
"USC00500804","1942-01-31",46.04,39.92,3.00,0.00,
"USC00500804","1942-02-01",44.06,39.02,33.00,0.00,
"USC00500804","1942-02-02",46.04,35.96,36.00,0.00,
"USC00500804","1942-02-03",44.06,35.06,0.00,0.00,
"USC00500804","1942-02-04",46.04,35.06,0.00,0.00,
"USC00500804","1942-02-05",44.96,39.92,5.00,0.00,
"USC00500804","1942-02-06",46.94,37.04,0.00,0.00,
"USC00500804","1942-02-07",50.00,35.96,0.00,0.00,
"USC00500804","1942-02-08",48.02,39.92,0.00,0.00,
"USC00500804","1942-02-09",46.94,35.96,335.00,0.00,
"USC00500804","1942-02-10",44.06,35.96,152.00,0.00,
"USC00500804","1942-02-11",44.06,37.04,10.00,0.00,
"USC00500804","1942-02-12",46.04,39.92,3.00,0.00,
"USC00500804","1942-02-13",44.96,42.98,381.00,0.00,
"USC00500804","1942-02-14",46.94,37.94,0.00,0.00,
"USC00500804","1942-02-15",44.96,37.94,0.00,0.00,
"USC00500804","1942-02-16",44.06,37.94,102.00,0.00,
"USC00500804","1942-02-17",44.06,35.96,0.00,0.00,
"USC00500804","1942-02-18",44.06,37.04,79.00,0.00,
"USC00500804","1942-02-19",44.96,35.06,0.00,0.00,
"USC00500804","1942-02-20",42.08,32.00,0.00,0.00,
"USC00500804","1942-02-21",42.08,33.98,0.00,0.00,
"USC00500804","1942-02-22",44.96,30.92,0.00,0.00,
"USC00500804","1942-02-23",42.08,28.94,0.00,0.00,
"USC00500804","1942-02-24",37.94,33.08,5.00,0.00,
"USC00500804","1942-02-25",37.94,30.02,48.00,28.00,
"USC00500804","1942-02-26",42.08,32.00,114.00,0.00,
"USC00500804","1942-02-27",42.98,35.06,168.00,0.00,
"USC00500804","1942-02-28",44.96,33.98,79.00,0.00,
"USC00500804","1942-03-01",44.96,33.98,84.00,0.00,0.00
"USC00500804","1942-03-02",42.98,33.98,257.00,0.00,
"USC00500804","1942-03-03",42.98,35.96,335.00,0.00,
"USC00500804","1942-03-04",41.00,32.00,109.00,0.00,0.00
"USC00500804","1942-03-05",42.08,32.00,74.00,20.00,
"USC00500804","1942-03-06",42.98,35.06,152.00,0.00,
"USC00500804","1942-03-07",42.98,33.08,8.00,0.00,
"USC00500804","1942-03-08",39.92,30.02,79.00,51.00,51.00
"USC00500804","1942-03-09",39.02,26.96,170.00,20.00,51.00
"USC00500804","1942-03-10",41.00,32.00,191.00,25.00,0.00
"USC00500804","1942-03-11",39.02,30.02,15.00,20.00,25.00
"USC00500804","1942-03-12",44.06,33.08,0.00,0.00,25.00
"USC00500804","1942-03-13",44.06,28.94,0.00,0.00,25.00
"USC00500804","1942-03-14",39.92,28.04,185.00,0.00,0.00
"USC00500804","1942-03-15",44.06,32.00,86.00,0.00,0.00
"USC00500804","1942-03-16",44.96,30.92,165.00,0.00,
"USC00500804","1942-03-17",39.02,33.08,66.00,0.00,0.00
"USC00500804","1942-03-18",46.04,35.06,58.00,0.00,
"USC00500804","1942-03-19",42.08,32.00,102.00,0.00,0.00
"USC00500804","1942-03-20",39.92,28.94,18.00,0.00,
"USC00500804","1942-03-21",35.06,30.02,20.00,0.00,0.00
"USC00500804","1942-03-22",33.98,21.92,0.00,0.00,0.00
"USC00500804","1942-03-23",32.00,17.96,0.00,0.00,0.00
"USC00500804","1942-03-24",37.04,21.02,8.00,13.00,0.00
"USC00500804","1942-03-25",42.98,30.02,3.00,3.00,
"USC00500804","1942-03-26",46.94,33.08,66.00,0.00,
"USC00500804","1942-03-27",42.98,33.98,152.00,0.00,
"USC00500804","1942-03-28",53.96,33.08,0.00,0.00,
"USC00500804","1942-03-29",50.00,42.08,5.00,0.00,
"USC00500804","1942-03-30",53.06,39.02,107.00,0.00,
"USC00500804","1942-03-31",55.94,39.92,0.00,0.00,
"USC00500804","1942-04-01",48.92,42.08,3.00,0.00,
"USC00500804","1942-04-02",46.04,39.92,18.00,0.00,
"USC00500804","1942-04-03",46.04,37.94,38.00,0.00,
"USC00500804","1942-04-04",46.94,37.94,5.00,0.00,
"USC00500804","1942-04-05",51.08,35.96,0.00,0.00,
"USC00500804","1942-04-06",50.00,33.98,0.00,0.00,
"USC00500804","1942-04-07",50.00,35.96,0.00,0.00,
"USC00500804","1942-04-08",51.08,39.02,0.00,0.00,
"USC00500804","1942-04-09",46.94,37.94,104.00,0.00,
"USC00500804","1942-04-10",46.04,37.04,79.00,0.00,
"USC00500804","1942-04-11",44.96,35.96,94.00,0.00,
"USC00500804","1942-04-12",46.04,33.08,13.00,0.00,
"USC00500804","1942-04-13",48.92,33.98,0.00,0.00,
"USC00500804","1942-04-14",55.04,33.08,0.00,0.00,
"USC00500804","1942-04-15",55.04,35.96,0.00,0.00,
"USC00500804","1942-04-16",50.00,39.92,81.00,0.00,
"USC00500804","1942-04-17",48.92,39.92,48.00,0.00,
"USC00500804","1942-04-18",53.06,37.04,23.00,0.00,
"USC00500804","1942-04-19",48.02,39.92,147.00,0.00,
"USC00500804","1942-04-20",46.94,37.94,79.00,0.00,
"USC00500804","1942-04-21",48.92,35.96,74.00,0.00,
"USC00500804","1942-04-22",46.94,37.94,36.00,0.00,
"USC00500804","1942-04-23",42.98,37.94,36.00,0.00,
"USC00500804","1942-04-24",53.06,39.02,0.00,0.00,
"USC00500804","1942-04-25",50.00,39.02,23.00,0.00,
"USC00500804","1942-04-26",48.02,37.94,25.00,0.00,
"USC00500804","1942-04-27",51.98,39.02,0.00,0.00,
"USC00500804","1942-04-28",48.92,39.92,28.00,0.00,
"USC00500804","1942-04-29",51.08,39.02,13.00,0.00,
"USC00500804","1942-04-30",53.96,39.92,15.00,0.00,
"USC00500804","1942-05-01",46.04,37.04,193.00,0.00,
"USC00500804","1942-05-02",46.04,35.96,89.00,0.00,
"USC00500804","1942-05-03",48.92,37.94,46.00,0.00,
"USC00500804","1942-05-04",51.98,35.06,0.00,0.00,
"USC00500804","1942-05-05",55.94,42.08,0.00,0.00,
"USC00500804","1942-05-06",53.06,44.06,20.00,0.00,
"USC00500804","1942-05-07",55.04,42.08,18.00,0.00,
"USC00500804","1942-05-08",55.94,41.00,10.00,0.00,
"USC00500804","1942-05-09",59.00,41.00,0.00,0.00,
"USC00500804","1942-05-10",53.06,42.08,0.00,0.00,
"USC00500804","1942-05-11",73.94,44.06,0.00,0.00,
"USC00500804","1942-05-12",80.06,53.96,0.00,0.00,
"USC00500804","1942-05-13",66.92,53.06,0.00,0.00,
"USC00500804","1942-05-14",60.98,39.92,0.00,0.00,
"USC00500804","1942-05-15",55.04,42.08,0.00,0.00,
"USC00500804","1942-05-16",60.98,44.06,0.00,0.00,
"USC00500804","1942-05-17",57.02,42.08,0.00,0.00,
"USC00500804","1942-05-18",62.96,42.98,0.00,0.00,
"USC00500804","1942-05-19",68.00,44.96,15.00,0.00,
"USC00500804","1942-05-20",51.08,33.08,99.00,0.00,
"USC00500804","1942-05-21",55.94,44.06,25.00,0.00,
"USC00500804","1942-05-22",53.06,44.96,13.00,0.00,
"USC00500804","1942-05-23",59.00,46.94,0.00,0.00,
"USC00500804","1942-05-24",62.06,46.94,3.00,0.00,
"USC00500804","1942-05-25",62.06,48.92,8.00,0.00,
"USC00500804","1942-05-26",,,86.00,0.00,
"USC00500804","1942-05-27",,,36.00,0.00,
"USC00500804","1942-05-28",,,0.00,0.00,
"USC00500804","1942-05-29",,,0.00,0.00,
"USC00500804","1942-05-30",,,0.00,0.00,
"USC00500804","1942-05-31",,,0.00,0.00,
"USC00500804","1942-08-01",66.02,53.06,0.00,,
"USC00500804","1942-08-02",64.04,51.98,0.00,,
"USC00500804","1942-08-03",59.00,51.98,5.00,,
"USC00500804","1942-08-04",57.92,53.06,137.00,,
"USC00500804","1942-08-05",62.06,53.06,218.00,,
"USC00500804","1942-08-06",59.00,53.06,51.00,,
"USC00500804","1942-08-07",60.08,51.98,0.00,,